| time (UTC) | temp C | wind direction | speed KPH | gust KPH | rain 1hr cm | rain 24hr cm | rain mn cm | humidity % | barometer mb |
| 20260505080106 | 13 | 124 | 1.6 | 14.5 | 0.00 | 0.00 | 0.00 | 85 | 1013.9 |
| 20260505074552 | 13 | 171 | 3.2 | 12.9 | 0.00 | 0.00 | 0.00 | 83 | 1013.9 |
| 20260505073058 | 14 | 0 | 0.0 | 11.3 | 0.00 | 0.00 | 0.00 | 82 | 1013.7 |
| 20260505071555 | 15 | 223 | 1.6 | 14.5 | 0.00 | 0.00 | 0.00 | 81 | 1013.6 |
| 20260505070101 | 15 | 0 | 0.0 | 9.7 | 0.00 | 0.00 | 0.00 | 79 | 1013.4 |
| 20260505064553 | 15 | 227 | 1.6 | 8.0 | 0.00 | 0.00 | 0.00 | 79 | 1013.1 |
| 20260505063111 | 16 | 261 | 0.0 | 11.3 | 0.00 | 0.00 | 0.00 | 80 | 1013.0 |
| 20260505061604 | 16 | 0 | 1.6 | 8.0 | 0.00 | 0.00 | 0.00 | 81 | 1012.7 |
| 20260505060055 | 16 | 0 | 1.6 | 14.5 | 0.00 | 0.00 | 0.00 | 81 | 1012.7 |
| 20260505054608 | 16 | 0 | 0.0 | 4.8 | 0.00 | 0.00 | 0.00 | 82 | 1012.5 |
| 20260505053100 | 16 | 134 | 1.6 | 12.9 | 0.00 | 0.00 | 0.00 | 81 | 1012.6 |
| 20260505051552 | 16 | 0 | 0.0 | 12.9 | 0.00 | 0.00 | 0.00 | 82 | 1012.6 |
| 20260505041557 | 15 | 0 | 1.6 | 4.8 | 0.00 | 0.00 | 0.00 | 89 | 1011.8 |
| 20260505040057 | 15 | 106 | 1.6 | 9.7 | 0.00 | 0.00 | 0.00 | 88 | 1011.9 |
| 20260505034550 | 15 | 98 | 1.6 | 6.4 | 0.00 | 0.00 | 0.00 | 86 | 1011.6 |
| 20260505033053 | 16 | 98 | 0.0 | 6.4 | 0.00 | 0.00 | 0.00 | 83 | 1011.4 |
| 20260505031604 | 17 | 0 | 1.6 | 9.7 | 0.00 | 0.00 | 0.00 | 80 | 1011.3 |
| 20260505030054 | 18 | 0 | 0.0 | 6.4 | 0.00 | 0.00 | 0.00 | 77 | 1011.2 |
| 20260505024603 | 18 | 127 | 1.6 | 8.0 | 0.00 | 0.00 | 0.00 | 75 | 1011.2 |
| 20260505023051 | 19 | 0 | 0.0 | 4.8 | 0.00 | 0.00 | 0.00 | 73 | 1011.0 |
| 20260505021555 | 19 | 203 | 1.6 | 11.3 | 0.00 | 0.00 | 0.00 | 72 | 1011.0 |
| 20260505020053 | 20 | 0 | 0.0 | 11.3 | 0.00 | 0.00 | 0.00 | 70 | 1011.0 |
| 20260505014607 | 20 | 171 | 0.0 | 9.7 | 0.00 | 0.00 | 0.00 | 69 | 1010.9 |
| 20260505013057 | 20 | 184 | 1.6 | 8.0 | 0.00 | 0.00 | 0.00 | 69 | 1010.9 |
| 20260505011603 | 20 | 0 | 1.6 | 11.3 | 0.00 | 0.00 | 0.00 | 68 | 1011.2 |
| 20260505010053 | 20 | 0 | 0.0 | 12.9 | 0.00 | 0.00 | 0.00 | 70 | 1011.3 |
| 20260505004554 | 21 | 160 | 0.0 | 4.8 | 0.00 | 0.00 | 0.00 | 68 | 1011.3 |
| 20260505003051 | 21 | 0 | 1.6 | 14.5 | 0.00 | 0.00 | 0.00 | 66 | 1011.3 |
| 20260505001550 | 21 | 213 | 3.2 | 12.9 | 0.00 | 0.00 | 0.00 | 66 | 1011.3 |
| 20260505000109 | 21 | 0 | 1.6 | 8.0 | 0.00 | 0.00 | 0.00 | 66 | 1011.5 |
| 20260504234551 | 21 | 245 | 3.2 | 12.9 | 0.00 | 0.00 | 0.00 | 67 | 1011.5 |
| 20260504233107 | 21 | 221 | 0.0 | 8.0 | 0.00 | 0.00 | 0.00 | 66 | 1011.4 |
| 20260504231555 | 21 | 257 | 1.6 | 11.3 | 0.00 | 0.00 | 0.00 | 66 | 1011.6 |
| 20260504230056 | 21 | 285 | 1.6 | 12.9 | 0.00 | 0.00 | 0.00 | 66 | 1011.5 |
| 20260504224557 | 20 | 155 | 3.2 | 12.9 | 0.00 | 0.00 | 0.00 | 66 | 1011.9 |
| 20260504223122 | 20 | 234 | 4.8 | 14.5 | 0.00 | 0.00 | 0.00 | 70 | 1012.0 |
| 20260504221600 | 20 | 219 | 1.6 | 11.3 | 0.00 | 0.00 | 0.00 | 69 | 1012.0 |
| 20260504220057 | 20 | 0 | 4.8 | 12.9 | 0.00 | 0.00 | 0.00 | 69 | 1012.3 |
| 20260504214554 | 20 | 0 | 0.0 | 8.0 | 0.00 | 0.00 | 0.00 | 73 | 1012.3 |
| 20260504213103 | 20 | 225 | 3.2 | 12.9 | 0.00 | 0.00 | 0.00 | 70 | 1012.5 |
| 20260504211600 | 20 | 0 | 3.2 | 14.5 | 0.00 | 0.00 | 0.00 | 72 | 1012.7 |
| 20260504210057 | 19 | 243 | 3.2 | 14.5 | 0.00 | 0.00 | 0.00 | 72 | 1013.0 |
| 20260504204550 | 18 | 271 | 1.6 | 11.3 | 0.00 | 0.00 | 0.00 | 74 | 1013.1 |
| 20260504203109 | 18 | 243 | 1.6 | 9.7 | 0.00 | 0.00 | 0.00 | 72 | 1013.0 |
| 20260504201559 | 18 | 227 | 1.6 | 11.3 | 0.00 | 0.00 | 0.00 | 74 | 1013.3 |
| 20260504200056 | 18 | 0 | 4.8 | 12.9 | 0.00 | 0.00 | 0.00 | 75 | 1013.2 |
| 20260504194552 | 18 | 185 | 1.6 | 9.7 | 0.00 | 0.00 | 0.00 | 76 | 1013.5 |
| 20260504193048 | 17 | 229 | 3.2 | 12.9 | 0.00 | 0.00 | 0.00 | 74 | 1013.5 |
| 20260504191557 | 17 | 101 | 3.2 | 12.9 | 0.00 | 0.00 | 0.00 | 75 | 1013.5 |
| 20260504190052 | 17 | 169 | 3.2 | 12.9 | 0.00 | 0.00 | 0.00 | 76 | 1013.8 |
| 20260504184551 | 16 | 132 | 3.2 | 11.3 | 0.00 | 0.00 | 0.00 | 77 | 1013.8 |
| 20260504183050 | 16 | 219 | 1.6 | 9.7 | 0.00 | 0.00 | 0.00 | 78 | 1013.9 |
| 20260504181557 | 16 | 0 | 3.2 | 8.0 | 0.00 | 0.00 | 0.00 | 78 | 1013.8 |
| 20260504180051 | 16 | 186 | 1.6 | 9.7 | 0.00 | 0.00 | 0.00 | 78 | 1013.8 |
| 20260504174611 | 15 | 170 | 0.0 | 6.4 | 0.00 | 0.00 | 0.00 | 82 | 1013.9 |
| 20260504173055 | 14 | 247 | 3.2 | 12.9 | 0.00 | 0.00 | 0.00 | 82 | 1013.6 |
| 20260504171555 | 14 | 274 | 1.6 | 12.9 | 0.00 | 0.00 | 0.00 | 82 | 1013.6 |
| 20260504090104 | 12 | 86 | 3.2 | 6.4 | 0.00 | 0.00 | 0.00 | 86 | 1009.4 |
| 20260504081555 | 12 | 108 | 1.6 | 6.4 | 0.00 | 0.00 | 0.00 | 85 | 1009.3 |